sat.trackr.live / text

‹ back to catalog

STARLINK-31746

NORAD 59613 · 2024-080N

PAYLOAD ACTIVE UNKNOWN

§ Identity

Operator
Country
US
Launch date
2024-04-28
Launch site
AFETR
Launch vehicle
Mass (kg)
RCS (m²)

Purposes: comms

External: N2YO · Heavens-Above · Gunter

§ Orbital elements

Epoch: 2026-05-24T21:49:11.817984Z

Period
94.27 min
Inclination
43.0038°
Eccentricity
0.0001783
Mean motion
15.27545977 rev/d
Perigee alt
481.9 km
Apogee alt
484.4 km
Semi-major
6,861.3 km
B*
-9.8223e-5
RAAN
331.3935°
Arg perigee
270.5943°
Mean anomaly
89.4705°
Rev number
11,614

§ Raw data

STARLINK-317461 59613U 24080N   26144.90916456 -.00002961  00000+0 -98223-4 0  99922 59613  43.0038 331.3935 0001783 270.5943  89.4705 15.27545977116148

JSON: /api/v1/satellites/59613 · /tle

For live sub-satellite position, see the globe view (requires WebGL).

§ Visibility from observer

Set your observer location to see the next 7 days of passes ≥ 10°. The values pass through the URL so the page stays shareable.

No JS? Fill the form by hand. The geolocation button needs JavaScript.